DAL2273 KSLC-KCVG

Flight info

Callsign DAL2273
Flight time 2h 44m
Altitude 35000
Route RUGGD3 PERTY CHE SNY PECKS OBH KP69G IOW ELANR CEGRM8
Aircraft B738/M-SDE3GHIJ4RWXYZ/LB1

Departure

Time 2026-05-05 16:54
Airport Salt Lake City International Airport (KSLC)

Arrival

Time 2026-05-05 19:39
Airport Cincinnati Northern Kentucky International Airport (KCVG)
Time Latitude Longitude Altitude Speed Heading
2026-05-05 16:27 40.78579 -111.99165 4230 ft 0 kts 175°
2026-05-05 16:42 40.78580 -111.99165 4230 ft 2 kts 175°
2026-05-05 16:42 40.78603 -111.99166 4229 ft 3 kts 183°
2026-05-05 16:42 40.78626 -111.99164 4230 ft 3 kts 182°
2026-05-05 16:43 40.78647 -111.99167 4229 ft 3 kts 141°
2026-05-05 16:43 40.78660 -111.99185 4230 ft 3 kts 98°
2026-05-05 16:43 40.78658 -111.99214 4229 ft 3 kts 78°
2026-05-05 16:43 40.78656 -111.99230 4228 ft 0 kts 85°
2026-05-05 16:45 40.78657 -111.99212 4229 ft 5 kts 85°
2026-05-05 16:46 40.78663 -111.99130 4230 ft 13 kts 84°
2026-05-05 16:46 40.78671 -111.99005 4229 ft 14 kts 85°
2026-05-05 16:46 40.78680 -111.98869 4230 ft 16 kts 85°
2026-05-05 16:46 40.78691 -111.98711 4230 ft 18 kts 85°
2026-05-05 16:47 40.78702 -111.98547 4230 ft 18 kts 85°
2026-05-05 16:47 40.78713 -111.98390 4228 ft 17 kts 85°
2026-05-05 16:47 40.78724 -111.98238 4230 ft 16 kts 85°
2026-05-05 16:47 40.78733 -111.98087 4230 ft 18 kts 85°
2026-05-05 16:48 40.78745 -111.97921 4230 ft 18 kts 85°
2026-05-05 16:48 40.78764 -111.97796 4229 ft 11 kts 41°
2026-05-05 16:48 40.78837 -111.97789 4230 ft 11 kts 355°
2026-05-05 16:48 40.78922 -111.97799 4230 ft 14 kts 355°
2026-05-05 16:49 40.79032 -111.97812 4230 ft 18 kts 355°
2026-05-05 16:49 40.79174 -111.97828 4230 ft 22 kts 355°
2026-05-05 16:49 40.79329 -111.97846 4230 ft 22 kts 355°
2026-05-05 16:49 40.79477 -111.97863 4230 ft 21 kts 355°
2026-05-05 16:50 40.79624 -111.97880 4230 ft 21 kts 355°
2026-05-05 16:50 40.79766 -111.97897 4230 ft 20 kts 355°
2026-05-05 16:50 40.79903 -111.97913 4230 ft 20 kts 355°
2026-05-05 16:50 40.80037 -111.97927 4230 ft 19 kts 355°
2026-05-05 16:51 40.80166 -111.97942 4230 ft 18 kts 355°
2026-05-05 16:51 40.80291 -111.97965 4230 ft 19 kts 345°
2026-05-05 16:51 40.80421 -111.97999 4230 ft 20 kts 356°
2026-05-05 16:51 40.80566 -111.98021 4230 ft 21 kts 346°
2026-05-05 16:52 40.80696 -111.98055 4230 ft 16 kts
2026-05-05 16:52 40.80735 -111.97991 4230 ft 9 kts 81°
2026-05-05 16:52 40.80740 -111.97906 4230 ft 10 kts 85°
2026-05-05 16:52 40.80747 -111.97800 4228 ft 13 kts 90°
2026-05-05 16:53 40.80703 -111.97698 4228 ft 13 kts 153°
2026-05-05 16:53 40.80669 -111.97690 4228 ft 3 kts 174°
2026-05-05 16:53 40.80495 -111.97666 4232 ft 58 kts 175°
2026-05-05 16:53 40.79873 -111.97594 4229 ft 120 kts 175°
2026-05-05 16:54 40.78854 -111.97476 4251 ft 170 kts 174°
2026-05-05 16:54 40.77610 -111.97310 4804 ft 183 kts 173°
2026-05-05 16:54 40.76331 -111.97163 5405 ft 198 kts 187°
2026-05-05 16:54 40.75029 -111.97922 5619 ft 218 kts 221°
2026-05-05 16:55 40.74203 -111.99683 5827 ft 239 kts 254°
2026-05-05 16:55 40.74211 -112.01932 6177 ft 259 kts 283°
2026-05-05 16:55 40.75012 -112.04178 6392 ft 284 kts 298°
2026-05-05 16:55 40.76098 -112.06406 6978 ft 289 kts 301°
2026-05-05 16:56 40.77178 -112.08598 7998 ft 280 kts 301°
2026-05-05 16:56 40.78221 -112.10770 8882 ft 281 kts 301°
2026-05-05 16:56 40.79394 -112.12863 9605 ft 286 kts 309°
2026-05-05 16:56 40.80686 -112.14874 10319 ft 290 kts 311°
2026-05-05 16:57 40.82144 -112.16826 10533 ft 310 kts 327°
2026-05-05 16:57 40.84228 -112.17783 10701 ft 331 kts 355°
2026-05-05 16:57 40.86544 -112.17261 11041 ft 349 kts 23°
2026-05-05 16:57 40.88606 -112.15517 11676 ft 354 kts 34°
2026-05-05 16:58 40.90518 -112.13450 12438 ft 357 kts 44°
2026-05-05 16:58 40.92113 -112.10922 13211 ft 361 kts 55°
2026-05-05 16:58 40.93126 -112.07868 13897 ft 368 kts 73°
2026-05-05 16:58 40.93406 -112.04469 14536 ft 375 kts 88°
2026-05-05 16:59 40.93301 -112.01001 15160 ft 379 kts 90°
2026-05-05 16:59 40.93157 -111.97555 15742 ft 383 kts 91°
2026-05-05 16:59 40.93002 -111.94021 16334 ft 386 kts 91°
2026-05-05 16:59 40.92853 -111.90465 16964 ft 388 kts 91°
2026-05-05 17:00 40.92712 -111.86887 17586 ft 391 kts 90°
2026-05-05 17:00 40.92576 -111.83288 18175 ft 393 kts 90°
2026-05-05 17:00 40.92443 -111.79660 18690 ft 397 kts 90°
2026-05-05 17:00 40.92310 -111.75993 19115 ft 403 kts 91°
2026-05-05 17:01 40.92175 -111.72269 19560 ft 407 kts 91°
2026-05-05 17:01 40.92038 -111.68531 20127 ft 408 kts 91°
2026-05-05 17:01 40.91899 -111.64779 20644 ft 410 kts 91°
2026-05-05 17:01 40.91806 -111.62280 20945 ft 413 kts 91°
2026-05-05 17:02 40.91663 -111.58467 21383 ft 416 kts 91°
2026-05-05 17:02 40.91517 -111.54623 21827 ft 420 kts 91°
2026-05-05 17:02 40.91368 -111.50749 22298 ft 423 kts 91°
2026-05-05 17:02 40.91219 -111.46852 22747 ft 426 kts 91°
2026-05-05 17:03 40.91067 -111.42925 23188 ft 429 kts 91°
2026-05-05 17:03 40.90887 -111.38973 23578 ft 433 kts 94°
2026-05-05 17:03 40.90525 -111.35011 23959 ft 435 kts 97°
2026-05-05 17:03 40.90054 -111.31051 24372 ft 437 kts 98°
2026-05-05 17:04 40.89550 -111.27130 24758 ft 439 kts 98°
2026-05-05 17:04 40.89034 -111.23147 25125 ft 441 kts 98°
2026-05-05 17:04 40.88525 -111.19141 25480 ft 443 kts 97°
2026-05-05 17:04 40.88024 -111.15112 25830 ft 445 kts 97°
2026-05-05 17:05 40.87530 -111.11064 26161 ft 448 kts 97°
2026-05-05 17:05 40.87037 -111.06980 26447 ft 452 kts 97°
2026-05-05 17:05 40.86543 -111.02868 26821 ft 453 kts 97°
2026-05-05 17:05 40.86047 -110.98750 27171 ft 455 kts 97°
2026-05-05 17:06 40.85549 -110.94617 27489 ft 457 kts 97°
2026-05-05 17:06 40.85046 -110.90468 27807 ft 459 kts 97°
2026-05-05 17:06 40.84540 -110.86300 28128 ft 460 kts 97°
2026-05-05 17:06 40.84030 -110.82118 28418 ft 462 kts 97°
2026-05-05 17:07 40.83515 -110.77914 28678 ft 465 kts 97°
2026-05-05 17:07 40.82995 -110.73675 28859 ft 470 kts 97°
2026-05-05 17:07 40.82469 -110.69410 29137 ft 471 kts 97°
2026-05-05 17:07 40.81940 -110.65136 29492 ft 471 kts 97°
2026-05-05 17:08 40.81411 -110.60877 29960 ft 469 kts 97°
2026-05-05 17:08 40.80883 -110.56635 30341 ft 467 kts 97°
2026-05-05 17:08 40.80355 -110.52405 30664 ft 467 kts 97°
2026-05-05 17:08 40.79825 -110.48173 30940 ft 467 kts 97°
2026-05-05 17:09 40.79294 -110.43936 31152 ft 470 kts 97°
2026-05-05 17:09 40.78756 -110.39655 31193 ft 476 kts 97°
2026-05-05 17:09 40.78211 -110.35342 31460 ft 476 kts 97°
2026-05-05 17:09 40.77674 -110.31114 31980 ft 469 kts 97°
2026-05-05 17:10 40.77137 -110.26904 32545 ft 463 kts 97°
2026-05-05 17:10 40.76603 -110.22722 32867 ft 462 kts 97°
2026-05-05 17:10 40.76068 -110.18532 33035 ft 465 kts 97°
2026-05-05 17:10 40.75530 -110.14326 33229 ft 466 kts 97°
2026-05-05 17:11 40.74988 -110.10107 33502 ft 466 kts 97°
2026-05-05 17:11 40.74444 -110.05887 33677 ft 468 kts 97°
2026-05-05 17:11 40.73996 -110.01639 33919 ft 467 kts 94°
2026-05-05 17:11 40.73671 -109.97387 34158 ft 466 kts 93°
2026-05-05 17:12 40.73391 -109.93130 34340 ft 466 kts 92°
2026-05-05 17:12 40.73123 -109.88860 34494 ft 468 kts 93°
2026-05-05 17:12 40.72851 -109.84582 34663 ft 468 kts 93°
2026-05-05 17:12 40.72568 -109.80306 34821 ft 469 kts 93°
2026-05-05 17:13 40.71966 -109.71653 34819 ft 477 kts 94°
2026-05-05 17:13 40.71335 -109.62958 34832 ft 476 kts 94°
2026-05-05 17:14 40.70702 -109.54359 34839 ft 474 kts 95°
2026-05-05 17:14 40.70061 -109.45719 34854 ft 473 kts 95°
2026-05-05 17:15 40.69415 -109.37083 34848 ft 473 kts 95°
2026-05-05 17:15 40.68762 -109.28447 34838 ft 474 kts 95°
2026-05-05 17:16 40.68103 -109.19799 34840 ft 475 kts 95°
2026-05-05 17:16 40.67434 -109.11124 34862 ft 476 kts 95°
2026-05-05 17:17 40.66757 -109.02423 34855 ft 478 kts 96°
2026-05-05 17:17 40.66070 -108.93689 34868 ft 480 kts 96°
2026-05-05 17:18 40.65374 -108.84915 34866 ft 482 kts 96°
2026-05-05 17:18 40.64673 -108.76171 34876 ft 483 kts 96°
2026-05-05 17:19 40.63960 -108.67353 34874 ft 485 kts 97°
2026-05-05 17:19 40.63237 -108.58517 34884 ft 486 kts 97°
2026-05-05 17:20 40.62506 -108.49652 34866 ft 487 kts 97°
2026-05-05 17:20 40.61768 -108.40792 34881 ft 487 kts 97°
2026-05-05 17:21 40.61023 -108.31930 34883 ft 487 kts 97°
2026-05-05 17:22 40.59892 -108.18623 34875 ft 488 kts 97°
2026-05-05 17:22 40.59128 -108.09744 34874 ft 488 kts 97°
2026-05-05 17:23 40.58358 -108.00877 34872 ft 488 kts 98°
2026-05-05 17:23 40.57582 -107.92016 34874 ft 487 kts 98°
2026-05-05 17:24 40.56800 -107.83166 34867 ft 487 kts 98°
2026-05-05 17:24 40.56011 -107.74318 34931 ft 487 kts 98°
2026-05-05 17:25 40.55213 -107.65451 34927 ft 489 kts 98°
2026-05-05 17:25 40.54407 -107.56568 34928 ft 489 kts 99°
2026-05-05 17:26 40.53595 -107.47693 34935 ft 489 kts 99°
2026-05-05 17:26 40.52783 -107.38886 34944 ft 489 kts 99°
2026-05-05 17:27 40.52235 -107.29959 34950 ft 493 kts 89°
2026-05-05 17:27 40.53287 -107.21040 34959 ft 495 kts 78°
2026-05-05 17:28 40.54727 -107.12174 34949 ft 496 kts 78°
2026-05-05 17:28 40.56137 -107.03287 34924 ft 497 kts 79°
2026-05-05 17:29 40.57498 -106.94354 34886 ft 498 kts 79°
2026-05-05 17:29 40.58836 -106.85393 34942 ft 500 kts 79°
2026-05-05 17:30 40.60170 -106.76398 34932 ft 501 kts 80°
2026-05-05 17:30 40.61496 -106.67432 34909 ft 503 kts 80°
2026-05-05 17:31 40.62829 -106.58372 34886 ft 504 kts 80°
2026-05-05 17:31 40.64158 -106.49291 34863 ft 506 kts 80°
2026-05-05 17:32 40.65484 -106.40177 34844 ft 508 kts 80°
2026-05-05 17:32 40.66807 -106.31025 34854 ft 510 kts 81°
2026-05-05 17:33 40.68129 -106.21834 34855 ft 511 kts 81°
2026-05-05 17:33 40.69448 -106.12604 34858 ft 513 kts 81°
2026-05-05 17:34 40.70761 -106.03361 34870 ft 514 kts 81°
2026-05-05 17:34 40.72070 -105.94090 34857 ft 515 kts 81°
2026-05-05 17:35 40.73366 -105.84863 34902 ft 515 kts 81°
2026-05-05 17:35 40.74672 -105.75495 34928 ft 517 kts 81°
2026-05-05 17:36 40.75958 -105.66225 34919 ft 518 kts 81°
2026-05-05 17:36 40.77245 -105.56882 34963 ft 518 kts 81°
2026-05-05 17:37 40.78527 -105.47523 35010 ft 519 kts 81°
2026-05-05 17:37 40.79804 -105.38138 35000 ft 520 kts 81°
2026-05-05 17:38 40.81076 -105.28726 35021 ft 521 kts 82°
2026-05-05 17:38 40.82343 -105.19292 35020 ft 523 kts 82°
2026-05-05 17:39 40.83606 -105.09831 35024 ft 523 kts 82°
2026-05-05 17:39 40.84862 -105.00360 35032 ft 523 kts 82°
2026-05-05 17:40 40.86113 -104.90869 35047 ft 524 kts 82°
2026-05-05 17:40 40.87348 -104.81430 35044 ft 525 kts 82°
2026-05-05 17:41 40.88585 -104.71912 35046 ft 526 kts 82°
2026-05-05 17:41 40.89816 -104.62377 35060 ft 527 kts 82°
2026-05-05 17:42 40.91042 -104.52818 35060 ft 528 kts 82°
2026-05-05 17:42 40.92263 -104.43235 35086 ft 528 kts 82°
2026-05-05 17:43 40.93476 -104.33647 35114 ft 528 kts 82°
2026-05-05 17:43 40.94681 -104.24059 35112 ft 529 kts 82°
2026-05-05 17:44 40.95871 -104.14513 35124 ft 529 kts 83°
2026-05-05 17:44 40.97062 -104.04900 35132 ft 530 kts 83°
2026-05-05 17:45 40.98247 -103.95268 35110 ft 530 kts 83°
2026-05-05 17:45 40.99424 -103.85635 35079 ft 530 kts 83°
2026-05-05 17:46 41.00594 -103.75981 35052 ft 531 kts 83°
2026-05-05 17:46 41.01759 -103.66306 35062 ft 532 kts 83°
2026-05-05 17:47 41.02917 -103.56612 35048 ft 533 kts 83°
2026-05-05 17:47 41.04068 -103.46907 35036 ft 534 kts 83°
2026-05-05 17:48 41.05214 -103.37168 35039 ft 536 kts 83°
2026-05-05 17:48 41.06349 -103.27457 35023 ft 538 kts 83°
2026-05-05 17:49 41.07486 -103.17641 35019 ft 539 kts 83°
2026-05-05 17:49 41.08618 -103.07798 35061 ft 541 kts 83°
2026-05-05 17:50 41.09735 -102.97915 35058 ft 542 kts 85°
2026-05-05 17:50 41.10393 -102.87969 35061 ft 541 kts 89°
2026-05-05 17:51 41.10767 -102.79693 35051 ft 541 kts 90°
2026-05-05 17:51 41.11211 -102.69715 35034 ft 543 kts 90°
2026-05-05 17:52 41.11694 -102.59720 35033 ft 544 kts 89°
2026-05-05 17:52 41.12194 -102.49703 35023 ft 544 kts 89°
2026-05-05 17:53 41.12688 -102.39678 35020 ft 545 kts 89°
2026-05-05 17:53 41.13172 -102.29636 35019 ft 545 kts 90°
2026-05-05 17:54 41.13644 -102.19595 35026 ft 546 kts 90°
2026-05-05 17:54 41.14108 -102.09539 35050 ft 547 kts 90°
2026-05-05 17:55 41.14564 -101.99456 35018 ft 547 kts 90°
2026-05-05 17:55 41.15011 -101.89380 35067 ft 548 kts 90°
2026-05-05 17:56 41.15451 -101.79265 35087 ft 550 kts 90°
2026-05-05 17:56 41.15881 -101.69175 35078 ft 552 kts 90°
2026-05-05 17:57 41.16307 -101.58967 35062 ft 554 kts 90°
2026-05-05 17:57 41.16726 -101.48733 35061 ft 556 kts 90°
2026-05-05 17:58 41.17136 -101.38478 35047 ft 557 kts 90°
2026-05-05 17:58 41.17535 -101.28274 35034 ft 557 kts 90°
2026-05-05 17:59 41.17928 -101.17990 35032 ft 558 kts 90°
2026-05-05 17:59 41.18312 -101.07704 35041 ft 558 kts 90°
2026-05-05 18:00 41.18686 -100.97411 35045 ft 558 kts 90°
2026-05-05 18:00 41.19052 -100.87134 35055 ft 557 kts 90°
2026-05-05 18:01 41.19407 -100.76870 35068 ft 556 kts 91°
2026-05-05 18:01 41.19753 -100.66624 35068 ft 555 kts 91°
2026-05-05 18:02 41.20087 -100.56450 35074 ft 555 kts 91°
2026-05-05 18:02 41.20413 -100.46226 35055 ft 554 kts 91°
2026-05-05 18:03 41.20731 -100.35998 35046 ft 554 kts 91°
2026-05-05 18:03 41.21040 -100.25767 35033 ft 554 kts 91°
2026-05-05 18:04 41.21339 -100.15547 35036 ft 554 kts 91°
2026-05-05 18:04 41.21629 -100.05320 35040 ft 554 kts 91°
2026-05-05 18:05 41.21911 -99.95086 35045 ft 555 kts 91°
2026-05-05 18:05 41.22183 -99.84833 35043 ft 556 kts 91°
2026-05-05 18:06 41.22445 -99.74634 35041 ft 557 kts 91°
2026-05-05 18:06 41.22701 -99.64349 35049 ft 558 kts 91°
2026-05-05 18:07 41.22948 -99.54030 35047 ft 559 kts 91°
2026-05-05 18:07 41.23186 -99.43701 35042 ft 560 kts 91°
2026-05-05 18:08 41.23415 -99.33343 35039 ft 561 kts 91°
2026-05-05 18:08 41.23635 -99.22969 35039 ft 562 kts 91°
2026-05-05 18:09 41.24083 -99.12586 35021 ft 565 kts 81°
2026-05-05 18:09 41.25833 -99.02422 35037 ft 565 kts 75°
2026-05-05 18:10 41.27745 -98.92300 35047 ft 564 kts 76°
2026-05-05 18:10 41.29558 -98.82219 35038 ft 564 kts 76°
2026-05-05 18:11 41.31318 -98.72060 35051 ft 563 kts 77°
2026-05-05 18:11 41.33076 -98.61842 35047 ft 563 kts 77°
2026-05-05 18:12 41.34810 -98.51752 35052 ft 562 kts 77°
2026-05-05 18:12 41.36550 -98.41588 35042 ft 562 kts 77°
2026-05-05 18:13 41.37979 -98.31374 35044 ft 561 kts 86°
2026-05-05 18:13 41.38456 -98.21016 35050 ft 560 kts 89°
2026-05-05 18:14 41.38803 -98.10649 35052 ft 560 kts 89°
2026-05-05 18:14 41.39205 -98.00288 35052 ft 561 kts 89°
2026-05-05 18:15 41.39655 -97.89923 35055 ft 561 kts 88°
2026-05-05 18:15 41.40112 -97.79535 35054 ft 562 kts 88°
2026-05-05 18:16 41.40556 -97.69139 35056 ft 563 kts 89°
2026-05-05 18:16 41.40987 -97.58705 35046 ft 563 kts 89°
2026-05-05 18:17 41.41403 -97.48344 35042 ft 564 kts 89°
2026-05-05 18:17 41.41814 -97.37906 35051 ft 565 kts 89°
2026-05-05 18:18 41.42217 -97.27435 35051 ft 565 kts 89°
2026-05-05 18:18 41.42610 -97.16965 35042 ft 566 kts 89°
2026-05-05 18:19 41.42994 -97.06482 35041 ft 567 kts 89°
2026-05-05 18:19 41.43369 -96.95988 35036 ft 567 kts 89°
2026-05-05 18:20 41.43735 -96.85491 35030 ft 567 kts 89°
2026-05-05 18:20 41.44091 -96.74989 35029 ft 567 kts 89°
2026-05-05 18:21 41.44437 -96.64481 35020 ft 567 kts 89°
2026-05-05 18:21 41.44774 -96.53988 35028 ft 566 kts 89°
2026-05-05 18:22 41.45101 -96.43503 35008 ft 566 kts 89°
2026-05-05 18:22 41.45416 -96.33090 35015 ft 565 kts 89°
2026-05-05 18:23 41.45723 -96.22617 35013 ft 565 kts 89°
2026-05-05 18:23 41.46021 -96.12157 35007 ft 565 kts 89°
2026-05-05 18:24 41.46309 -96.01692 35017 ft 565 kts 89°
2026-05-05 18:24 41.46587 -95.91229 35006 ft 565 kts 89°
2026-05-05 18:25 41.46856 -95.80766 35009 ft 565 kts 90°
2026-05-05 18:25 41.47116 -95.70294 34987 ft 565 kts 90°
2026-05-05 18:26 41.47366 -95.59832 34992 ft 564 kts 90°
2026-05-05 18:26 41.47606 -95.49384 34991 ft 564 kts 90°
2026-05-05 18:27 41.47837 -95.38933 34986 ft 564 kts 90°
2026-05-05 18:27 41.48057 -95.28545 34969 ft 564 kts 90°
2026-05-05 18:28 41.48371 -95.12866 34970 ft 564 kts 90°
2026-05-05 18:28 41.48569 -95.02402 34979 ft 564 kts 90°
2026-05-05 18:29 41.48757 -94.91950 34978 ft 564 kts 90°
2026-05-05 18:29 41.48936 -94.81476 34976 ft 564 kts 90°
2026-05-05 18:30 41.49106 -94.70984 34979 ft 568 kts 90°
2026-05-05 18:30 41.49267 -94.60439 34972 ft 568 kts 90°
2026-05-05 18:31 41.49418 -94.49913 34965 ft 567 kts 90°
2026-05-05 18:31 41.49560 -94.39421 34965 ft 565 kts 90°
2026-05-05 18:32 41.49690 -94.29006 34967 ft 564 kts 90°
2026-05-05 18:32 41.49811 -94.18545 34971 ft 564 kts 90°
2026-05-05 18:33 41.49922 -94.08094 34966 ft 563 kts 90°
2026-05-05 18:33 41.50029 -93.97647 34965 ft 563 kts 90°
2026-05-05 18:34 41.50201 -93.87184 34959 ft 563 kts 89°
2026-05-05 18:34 41.50397 -93.76750 34969 ft 563 kts 89°
2026-05-05 18:35 41.50575 -93.66323 34975 ft 563 kts 89°
2026-05-05 18:35 41.50732 -93.55877 34952 ft 563 kts 89°
2026-05-05 18:36 41.50877 -93.45434 34970 ft 563 kts 89°
2026-05-05 18:36 41.51012 -93.34989 34971 ft 564 kts 90°
2026-05-05 18:37 41.51140 -93.24512 34954 ft 565 kts 90°
2026-05-05 18:37 41.51259 -93.14019 34951 ft 566 kts 90°
2026-05-05 18:38 41.51368 -93.03514 34936 ft 567 kts 90°
2026-05-05 18:38 41.51452 -92.94768 34945 ft 567 kts 90°
2026-05-05 18:39 41.51544 -92.84258 34947 ft 567 kts 90°
2026-05-05 18:39 41.51626 -92.73738 34964 ft 567 kts 90°
2026-05-05 18:40 41.51698 -92.63215 34969 ft 567 kts 90°
2026-05-05 18:40 41.51761 -92.52696 34956 ft 567 kts 90°
2026-05-05 18:41 41.51814 -92.42180 34947 ft 567 kts 90°
2026-05-05 18:41 41.51858 -92.31676 34939 ft 566 kts 90°
2026-05-05 18:42 41.51892 -92.21179 34949 ft 565 kts 90°
2026-05-05 18:42 41.51917 -92.10751 34944 ft 565 kts 90°
2026-05-05 18:43 41.51931 -92.00273 34938 ft 564 kts 90°
2026-05-05 18:43 41.51936 -91.89818 34940 ft 563 kts 90°
2026-05-05 18:44 41.51932 -91.79378 34961 ft 562 kts 90°
2026-05-05 18:44 41.51918 -91.68936 34968 ft 561 kts 90°
2026-05-05 18:45 41.51824 -91.58583 34963 ft 561 kts 94°
2026-05-05 18:45 41.51255 -91.48213 34979 ft 560 kts 96°
2026-05-05 18:46 41.50532 -91.37869 34959 ft 560 kts 97°
2026-05-05 18:46 41.49831 -91.27511 34952 ft 560 kts 96°
2026-05-05 18:47 41.49166 -91.17142 34943 ft 561 kts 96°
2026-05-05 18:47 41.48508 -91.06770 34923 ft 561 kts 96°
2026-05-05 18:48 41.47839 -90.96402 34950 ft 561 kts 96°
2026-05-05 18:48 41.47157 -90.86039 34923 ft 561 kts 96°
2026-05-05 18:49 41.46463 -90.75664 34932 ft 561 kts 96°
2026-05-05 18:49 41.45760 -90.65304 34939 ft 561 kts 96°
2026-05-05 18:50 41.45049 -90.54952 34931 ft 561 kts 96°
2026-05-05 18:50 41.44334 -90.44671 34935 ft 560 kts 96°
2026-05-05 18:51 41.43605 -90.34343 34927 ft 559 kts 96°
2026-05-05 18:51 41.42870 -90.24037 34931 ft 558 kts 96°
2026-05-05 18:52 41.42124 -90.13729 34917 ft 558 kts 96°
2026-05-05 18:52 41.41372 -90.03449 34919 ft 557 kts 96°
2026-05-05 18:53 41.40610 -89.93184 34915 ft 556 kts 96°
2026-05-05 18:53 41.39847 -89.83006 34911 ft 555 kts 96°
2026-05-05 18:54 41.39071 -89.72794 34909 ft 554 kts 96°
2026-05-05 18:54 41.38287 -89.62593 34913 ft 553 kts 97°
2026-05-05 18:55 41.37495 -89.52396 34914 ft 553 kts 97°
2026-05-05 18:55 41.36692 -89.42195 34929 ft 553 kts 97°
2026-05-05 18:56 41.35881 -89.32002 34932 ft 554 kts 97°
2026-05-05 18:56 41.34703 -89.21907 34937 ft 550 kts 110°
2026-05-05 18:57 41.31663 -89.12730 34930 ft 536 kts 130°
2026-05-05 18:57 41.27431 -89.04690 34916 ft 535 kts 134°
2026-05-05 18:58 41.23067 -88.96645 34916 ft 539 kts 133°
2026-05-05 18:58 41.18711 -88.88504 34904 ft 542 kts 133°
2026-05-05 18:59 41.14364 -88.80296 34919 ft 545 kts 132°
2026-05-05 18:59 41.10006 -88.72062 34901 ft 545 kts 132°
2026-05-05 19:00 41.05635 -88.63833 34918 ft 546 kts 132°
2026-05-05 19:00 41.01255 -88.55621 34934 ft 546 kts 132°
2026-05-05 19:01 40.96889 -88.47460 34936 ft 546 kts 132°
2026-05-05 19:01 40.92470 -88.39223 34926 ft 545 kts 132°
2026-05-05 19:02 40.88102 -88.31100 34901 ft 544 kts 132°
2026-05-05 19:02 40.83707 -88.22950 34913 ft 545 kts 132°
2026-05-05 19:03 40.79302 -88.14802 34891 ft 544 kts 132°
2026-05-05 19:03 40.74904 -88.06685 34903 ft 543 kts 132°
2026-05-05 19:04 40.70503 -87.98588 34886 ft 543 kts 132°
2026-05-05 19:04 40.66100 -87.90505 34895 ft 541 kts 132°
2026-05-05 19:05 40.61713 -87.82475 34896 ft 540 kts 132°
2026-05-05 19:05 40.57330 -87.74471 34897 ft 538 kts 132°
2026-05-05 19:06 40.52948 -87.66494 34909 ft 537 kts 132°
2026-05-05 19:06 40.50781 -87.62557 34672 ft 541 kts 132°
2026-05-05 19:06 40.48569 -87.58544 34140 ft 542 kts 132°
2026-05-05 19:07 40.46353 -87.54527 33505 ft 543 kts 132°
2026-05-05 19:07 40.44135 -87.50511 32804 ft 543 kts 131°
2026-05-05 19:07 40.41920 -87.46503 32202 ft 542 kts 131°
2026-05-05 19:07 40.39718 -87.42520 31797 ft 536 kts 131°
2026-05-05 19:08 40.37538 -87.38580 31343 ft 531 kts 131°
2026-05-05 19:08 40.35375 -87.34680 30896 ft 526 kts 131°
2026-05-05 19:08 40.33232 -87.30821 30444 ft 521 kts 131°
2026-05-05 19:08 40.31107 -87.27001 30006 ft 516 kts 131°
2026-05-05 19:09 40.29001 -87.23222 29499 ft 511 kts 131°
2026-05-05 19:09 40.26915 -87.19481 29008 ft 505 kts 132°
2026-05-05 19:09 40.24855 -87.15794 28546 ft 499 kts 132°
2026-05-05 19:09 40.22820 -87.12153 28076 ft 493 kts 132°
2026-05-05 19:10 40.20803 -87.08550 27593 ft 487 kts 131°
2026-05-05 19:10 40.18811 -87.04998 27165 ft 482 kts 132°
2026-05-05 19:10 40.16837 -87.01479 26713 ft 477 kts 132°
2026-05-05 19:10 40.14884 -86.98004 26271 ft 473 kts 132°
2026-05-05 19:11 40.12945 -86.94558 25808 ft 468 kts 132°
2026-05-05 19:11 40.11024 -86.91146 25374 ft 464 kts 131°
2026-05-05 19:11 40.09119 -86.87767 24936 ft 460 kts 132°
2026-05-05 19:11 40.07232 -86.84424 24529 ft 456 kts 132°
2026-05-05 19:12 40.05382 -86.81149 24093 ft 453 kts 132°
2026-05-05 19:12 40.03518 -86.77852 23664 ft 449 kts 132°
2026-05-05 19:12 40.01666 -86.74580 23181 ft 446 kts 132°
2026-05-05 19:12 39.99827 -86.71328 22739 ft 442 kts 131°
2026-05-05 19:13 39.98069 -86.68078 22403 ft 435 kts 130°
2026-05-05 19:13 39.96378 -86.64850 22120 ft 428 kts 129°
2026-05-05 19:13 39.94723 -86.61668 21809 ft 421 kts 129°
2026-05-05 19:13 39.93086 -86.58536 21497 ft 416 kts 129°
2026-05-05 19:14 39.91461 -86.55450 21187 ft 411 kts 130°
2026-05-05 19:14 39.89849 -86.52406 20909 ft 405 kts 130°
2026-05-05 19:14 39.88255 -86.49406 20630 ft 401 kts 130°
2026-05-05 19:14 39.86678 -86.46442 20351 ft 396 kts 130°
2026-05-05 19:15 39.85110 -86.43499 20083 ft 395 kts 130°
2026-05-05 19:15 39.83538 -86.40552 19818 ft 397 kts 130°
2026-05-05 19:15 39.81964 -86.37594 19533 ft 399 kts 129°
2026-05-05 19:15 39.80572 -86.34472 19244 ft 401 kts 119°
2026-05-05 19:16 39.79427 -86.31181 18975 ft 398 kts 117°
2026-05-05 19:16 39.78327 -86.27886 18686 ft 396 kts 117°
2026-05-05 19:16 39.77237 -86.24614 18418 ft 393 kts 117°
2026-05-05 19:16 39.76142 -86.21362 18144 ft 394 kts 117°
2026-05-05 19:17 39.75043 -86.18139 17841 ft 396 kts 117°
2026-05-05 19:17 39.73919 -86.14869 17545 ft 394 kts 117°
2026-05-05 19:17 39.72805 -86.11641 17351 ft 390 kts 117°
2026-05-05 19:17 39.71691 -86.08426 17075 ft 389 kts 117°
2026-05-05 19:18 39.70579 -86.05225 16803 ft 388 kts 118°
2026-05-05 19:18 39.69468 -86.02035 16527 ft 388 kts 118°
2026-05-05 19:18 39.68360 -85.98853 16266 ft 387 kts 118°
2026-05-05 19:18 39.67252 -85.95676 15994 ft 386 kts 118°
2026-05-05 19:19 39.66147 -85.92509 15724 ft 385 kts 118°
2026-05-05 19:19 39.65044 -85.89352 15456 ft 383 kts 118°
2026-05-05 19:19 39.63945 -85.86209 15187 ft 382 kts 118°
2026-05-05 19:19 39.62849 -85.83079 14920 ft 380 kts 118°
2026-05-05 19:20 39.61757 -85.79963 14653 ft 379 kts 119°
2026-05-05 19:20 39.60681 -85.76851 14385 ft 377 kts 117°
2026-05-05 19:20 39.59682 -85.73710 14122 ft 376 kts 116°
2026-05-05 19:20 39.58717 -85.70567 13863 ft 374 kts 116°
2026-05-05 19:21 39.57757 -85.67437 13589 ft 373 kts 116°
2026-05-05 19:21 39.56795 -85.64327 13301 ft 371 kts 116°
2026-05-05 19:21 39.55828 -85.61228 13029 ft 369 kts 117°
2026-05-05 19:21 39.54864 -85.58155 12762 ft 367 kts 117°
2026-05-05 19:22 39.53904 -85.55105 12502 ft 365 kts 117°
2026-05-05 19:22 39.52944 -85.52062 12231 ft 363 kts 117°
2026-05-05 19:22 39.51982 -85.49050 11986 ft 360 kts 120°
2026-05-05 19:22 39.50743 -85.46292 11731 ft 351 kts 132°
2026-05-05 19:23 39.49289 -85.43778 11505 ft 348 kts 133°
2026-05-05 19:23 39.47855 -85.41263 11239 ft 346 kts 133°
2026-05-05 19:23 39.46448 -85.38748 11004 ft 343 kts 132°
2026-05-05 19:23 39.45079 -85.36275 10790 ft 342 kts 132°
2026-05-05 19:24 39.43702 -85.33781 10527 ft 340 kts 132°
2026-05-05 19:24 39.42335 -85.31305 10274 ft 337 kts 132°
2026-05-05 19:24 39.40961 -85.28819 10043 ft 333 kts 132°
2026-05-05 19:24 39.39752 -85.26251 9807 ft 337 kts 122°
2026-05-05 19:25 39.38906 -85.23444 9567 ft 341 kts 115°
2026-05-05 19:25 39.38123 -85.20548 9368 ft 339 kts 115°
2026-05-05 19:25 39.37345 -85.17698 9448 ft 333 kts 118°
2026-05-05 19:25 39.36207 -85.15264 9446 ft 301 kts 137°
2026-05-05 19:26 39.34895 -85.13275 9401 ft 284 kts 139°
2026-05-05 19:26 39.33614 -85.11368 9326 ft 280 kts 139°
2026-05-05 19:26 39.32344 -85.09458 9237 ft 280 kts 138°
2026-05-05 19:26 39.31085 -85.07532 9163 ft 281 kts 138°
2026-05-05 19:27 39.29839 -85.05598 9070 ft 279 kts 137°
2026-05-05 19:27 39.29024 -85.04322 8974 ft 277 kts 137°
2026-05-05 19:27 39.27811 -85.02413 8873 ft 274 kts 137°
2026-05-05 19:27 39.26605 -85.00507 8790 ft 275 kts 137°
2026-05-05 19:28 39.25390 -84.98588 8684 ft 277 kts 137°
2026-05-05 19:28 39.24177 -84.96667 8578 ft 276 kts 136°
2026-05-05 19:28 39.22971 -84.94753 8481 ft 275 kts 136°
2026-05-05 19:28 39.21767 -84.92842 8376 ft 273 kts 136°
2026-05-05 19:29 39.20582 -84.90961 8293 ft 266 kts 136°
2026-05-05 19:29 39.19437 -84.89142 8205 ft 257 kts 136°
2026-05-05 19:29 39.18329 -84.87386 8117 ft 248 kts 137°
2026-05-05 19:29 39.17256 -84.85684 8030 ft 240 kts 137°
2026-05-05 19:30 39.16217 -84.84035 7920 ft 236 kts 136°
2026-05-05 19:30 39.15250 -84.82322 7752 ft 237 kts 133°
2026-05-05 19:30 39.14305 -84.80581 7595 ft 237 kts 133°
2026-05-05 19:30 39.13516 -84.78684 7411 ft 251 kts 109°
2026-05-05 19:31 39.13410 -84.76401 7269 ft 258 kts 96°
2026-05-05 19:31 39.13386 -84.74065 7056 ft 262 kts 97°
2026-05-05 19:31 39.13346 -84.71706 6846 ft 264 kts 97°
2026-05-05 19:31 39.13299 -84.69335 6624 ft 265 kts 97°
2026-05-05 19:32 39.13274 -84.66995 6402 ft 264 kts 96°
2026-05-05 19:32 39.13274 -84.64646 6228 ft 260 kts 96°
2026-05-05 19:32 39.13273 -84.62320 5998 ft 259 kts 96°
2026-05-05 19:32 39.13270 -84.60007 5764 ft 258 kts 96°
2026-05-05 19:33 39.13263 -84.57692 5521 ft 259 kts 96°
2026-05-05 19:33 39.13256 -84.55368 5264 ft 260 kts 96°
2026-05-05 19:33 39.13248 -84.53046 5004 ft 257 kts 95°
2026-05-05 19:33 39.13219 -84.50770 4761 ft 249 kts 102°
2026-05-05 19:34 39.12645 -84.48805 4533 ft 226 kts 135°
2026-05-05 19:34 39.11482 -84.47597 4356 ft 209 kts 158°
2026-05-05 19:34 39.10143 -84.47008 4168 ft 199 kts 178°
2026-05-05 19:35 39.07390 -84.46977 3843 ft 200 kts 184°
2026-05-05 19:35 39.06007 -84.47146 3565 ft 201 kts 203°
2026-05-05 19:35 39.05041 -84.48329 3423 ft 194 kts 244°
2026-05-05 19:35 39.04756 -84.50008 3211 ft 192 kts 257°
2026-05-05 19:36 39.04632 -84.51712 2948 ft 188 kts 262°
2026-05-05 19:36 39.04608 -84.53338 2705 ft 175 kts 263°
2026-05-05 19:36 39.04610 -84.54845 2493 ft 160 kts 264°
2026-05-05 19:36 39.04613 -84.56193 2301 ft 144 kts 264°
2026-05-05 19:37 39.04615 -84.57439 2126 ft 136 kts 262°
2026-05-05 19:37 39.04616 -84.58638 1966 ft 134 kts 261°
2026-05-05 19:37 39.04614 -84.59864 1769 ft 143 kts 263°
2026-05-05 19:37 39.04617 -84.61185 1548 ft 151 kts 265°
2026-05-05 19:38 39.04623 -84.62539 1345 ft 151 kts 265°
2026-05-05 19:38 39.04622 -84.63872 1148 ft 148 kts 266°
2026-05-05 19:38 39.04612 -84.65185 941 ft 145 kts 271°
2026-05-05 19:38 39.04627 -84.66437 884 ft 131 kts 269°
2026-05-05 19:39 39.04630 -84.67357 881 ft 75 kts 270°
2026-05-05 19:39 39.04631 -84.67863 881 ft 35 kts 270°
2026-05-05 19:39 39.04671 -84.68009 881 ft 14 kts 350°
2026-05-05 19:39 39.04745 -84.67961 879 ft 14 kts 85°
2026-05-05 19:40 39.04744 -84.67842 878 ft 13 kts 90°
2026-05-05 19:40 39.04743 -84.67725 879 ft 14 kts 90°
2026-05-05 19:40 39.04742 -84.67571 878 ft 20 kts 90°
2026-05-05 19:40 39.04742 -84.67395 879 ft 19 kts 90°
2026-05-05 19:41 39.04742 -84.67224 880 ft 20 kts 89°
2026-05-05 19:41 39.04742 -84.67048 881 ft 19 kts 90°
2026-05-05 19:41 39.04741 -84.66878 885 ft 18 kts 90°
2026-05-05 19:41 39.04740 -84.66738 883 ft 10 kts 89°
2026-05-05 19:42 39.04740 -84.66640 881 ft 14 kts 90°
2026-05-05 19:42 39.04739 -84.66476 880 ft 19 kts 90°
2026-05-05 19:42 39.04739 -84.66307 879 ft 19 kts 90°
2026-05-05 19:42 39.04739 -84.66142 879 ft 17 kts 90°
2026-05-05 19:43 39.04769 -84.66091 878 ft 7 kts
2026-05-05 19:43 39.04818 -84.66091 878 ft 8 kts 359°
2026-05-05 19:43 39.04875 -84.66081 878 ft 5 kts 45°
2026-05-05 19:43 39.04879 -84.65998 878 ft 15 kts 90°
2026-05-05 19:44 39.04879 -84.65837 878 ft 19 kts 90°
2026-05-05 19:44 39.04879 -84.65667 878 ft 19 kts 90°
2026-05-05 19:44 39.04879 -84.65532 878 ft 11 kts 90°
2026-05-05 19:44 39.04897 -84.65475 878 ft 7 kts 16°
2026-05-05 19:45 39.04947 -84.65474 878 ft 7 kts 360°
2026-05-05 19:45 39.04972 -84.65474 878 ft 0 kts 359°